User: anonymous   Login
Location: Unspecified
(0.0000°N, 0.0000°E)
Time: 23:09:10
(UTC+02:00)
Language:

YAOGAN 3 - Orbit

View from above orbital plane
View from above orbital plane
View from above satellite
View from above satellite

Ground track
Ground track

The orbit data is extracted from the following two-line orbital elements,

1 32289U 07055A   17295.47658271 -.00000071  00000-0 -23885-5 0  9996
2 32289  98.0035 297.1499 0001016  82.2199 277.9128 14.80848370537577
Epoch (UTC): 22 October 2017 11:26:16
Eccentricity: 0.0001016
inclination: 98.0035°
perigee height: 626 km
apogee height: 627 km
right ascension of ascending node: 297.1499°
argument of perigee: 82.2199°
revolutions per day: 14.80848370
mean anomaly at epoch: 277.9128°
orbit number at epoch: 53757

The dashed part of the orbit path shows where the satellite is in the earth's shadow,  

DLR